Powrót do katalogu

STARLINK-4059

AktywnyŁącznośćVLEO
NORAD 53250·PAYLOAD·🇺🇸 United States

Wystrzelony Jul 24, 2022 z Cape Canaveral Space Force Station

Loading…

Następne Przeloty (najbliższe 24 godziny)

TLE

ŚwieżeSource: CelesTrak SupGP

Epoka: Sep 14, 2026, 21:04 UTC

1 53250C 22086J   26257.87826389  .00022198  00000+0  65591-3 0  2573
2 53250  53.1592  51.6552 0001093  78.2638 145.0989 15.34377275    14

Śledź STARLINK-4059 w czasie rzeczywistym z AllMySat

Download on the App Store